Date String (YYYY-MM-DD hh:mm:ss) UTC,Instrument flags,absolute air pressure of the measurement (hPa),sample flow rate (lpm),inlet stack bypass flow (lpm),air temperature of the measurement (°C),ambient temperature measured by the external sensor (°C),aerosol sample conditioner tube jacket temperature (°C),OPC LED temperature (°C),internal box temperature (°C),relative humidity of the measurement (%),span deviation,mass concentration of particles derived from Lorenz-Mie calculation of OPC scattering (μg/m³),mass concentration of particles derived from Lorenz-Mie calculation of OPC scattering (μg/m³),mass concentration of particles derived from Lorenz-Mie calculation of OPC scattering (μg/m³)
DateTimeUTC,F1_M11,P_M11,Q1_M11,Q2_M11,T1_M11,T2_M11,T3_M11,T4_M11,T5_M11,U1_M11,ZSPAN_M11,X2_M11,X0_M11,X1_M11
2023-11-12 13:00:00,SystemResetWarning,0834.0,5.00,000.00,023.1,022.0,000.0,031.5,024.4,6.7,0000.0,0001.81,0003.10,0001.28
2023-11-12 13:01:00,SystemResetWarning,0834.0,5.02,000.00,023.1,022.0,000.0,031.5,024.4,6.3,0000.0,0001.89,0003.36,0001.29
2023-11-12 13:02:00,SystemResetWarning,0834.0,5.01,000.00,023.1,022.0,000.0,031.4,024.5,6.3,0000.0,0001.94,0004.07,0001.29
2023-11-12 13:03:00,SystemResetWarning,0834.0,4.99,000.00,023.1,022.0,000.0,031.4,024.4,6.6,0000.0,0002.00,0005.06,0001.30
2023-11-12 13:04:00,SystemResetWarning,0834.1,5.00,000.00,023.1,021.9,000.0,031.4,024.4,6.7,0000.0,0001.98,0005.06,0001.29
2023-11-12 13:05:00,SystemResetWarning,0834.1,5.00,000.00,023.0,021.9,000.0,031.4,024.4,6.8,0000.0,0001.96,0004.95,0001.30
2023-11-12 13:06:00,SystemResetWarning,0834.1,4.99,000.00,023.0,021.9,000.0,031.4,024.4,6.7,0000.0,0001.96,0004.90,0001.30
2023-11-12 13:07:00,SystemResetWarning,0834.1,5.00,000.00,023.0,021.9,000.0,031.4,024.4,6.7,0000.0,0001.95,0004.84,0001.30
2023-11-12 13:08:00,SystemResetWarning,0834.1,5.00,000.00,023.0,021.9,000.0,031.4,024.4,6.6,0000.0,0001.99,0004.88,0001.30
2023-11-12 13:09:00,SystemResetWarning,0834.2,5.00,000.00,023.0,021.9,000.0,031.4,024.4,6.8,0000.0,0001.96,0004.83,0001.29
2023-11-12 13:10:00,SystemResetWarning,0834.1,5.00,000.00,023.0,021.9,000.0,031.4,024.4,6.8,0000.0,0001.95,0004.85,0001.27
2023-11-12 13:11:00,SystemResetWarning,0834.1,5.00,000.00,023.0,021.9,000.0,031.4,024.4,6.8,0000.0,0001.95,0004.91,0001.26
2023-11-12 13:12:00,SystemResetWarning,0834.1,5.00,000.00,023.0,021.9,000.0,031.4,024.4,6.7,0000.0,0001.91,0004.83,0001.26
2023-11-12 13:13:00,SystemResetWarning,0834.1,5.00,000.00,023.0,021.9,000.0,031.4,024.4,6.6,0000.0,0001.83,0004.04,0001.26
2023-11-12 13:14:00,SystemResetWarning,0834.2,5.00,000.00,023.0,022.0,000.0,031.4,024.4,6.4,0000.0,0001.80,0003.10,0001.26
2023-11-12 13:15:00,SystemResetWarning,0834.2,5.00,000.00,023.0,022.0,000.0,031.4,024.5,6.4,0000.0,0001.82,0003.15,0001.26
2023-11-12 13:16:00,SystemResetWarning,0834.2,5.01,000.00,023.0,022.0,000.0,031.4,024.5,6.6,0000.0,0001.82,0003.14,0001.26
2023-11-12 13:17:00,SystemResetWarning,0834.2,5.00,000.00,023.0,022.0,000.0,031.4,024.5,6.5,0000.0,0001.80,0003.06,0001.26
2023-11-12 13:18:00,SystemResetWarning,0834.2,5.00,000.00,023.0,022.0,000.0,031.4,024.4,6.5,0000.0,0001.80,0003.06,0001.26
2023-11-12 13:19:00,SystemResetWarning,0834.3,5.00,000.00,023.0,022.0,000.0,031.4,024.4,6.6,0000.0,0001.74,0002.90,0001.25
2023-11-12 13:20:00,SystemResetWarning,0834.2,4.99,000.00,023.0,022.0,000.0,031.4,024.4,6.6,0000.0,0001.74,0002.93,0001.25
2023-11-12 13:21:00,SystemResetWarning,0834.5,4.99,000.00,023.0,022.0,000.0,031.4,024.4,6.6,0000.0,0001.74,0003.02,0001.27
2023-11-12 13:22:00,SystemResetWarning,0834.4,4.99,000.00,023.0,022.0,000.0,031.4,024.4,6.6,0000.0,0001.73,0003.01,0001.26
2023-11-12 13:23:00,SystemResetWarning,0834.6,5.02,000.00,023.0,022.0,000.0,031.4,024.4,6.6,0000.0,0001.74,0003.06,0001.24
2023-11-12 13:24:00,SystemResetWarning,0834.5,5.00,000.00,023.0,022.0,000.0,031.4,024.4,6.6,0000.0,0001.77,0003.17,0001.23
2023-11-12 13:25:00,SystemResetWarning,0834.3,5.00,000.00,023.0,022.0,000.0,031.4,024.5,6.4,0000.0,0001.79,0003.25,0001.23
2023-11-12 13:26:00,SystemResetWarning,0834.4,5.00,000.00,023.0,022.0,000.0,031.4,024.5,6.4,0000.0,0001.77,0003.17,0001.23
2023-11-12 13:27:00,SystemResetWarning,0834.4,5.00,000.00,023.0,022.0,000.0,031.4,024.5,6.4,0000.0,0001.79,0003.44,0001.23
2023-11-12 13:28:00,SystemResetWarning,0834.4,5.00,000.00,023.0,022.0,000.0,031.4,024.5,6.6,0000.0,0001.80,0003.95,0001.22
2023-11-12 13:29:00,SystemResetWarning,0834.4,5.00,000.00,023.1,022.1,000.0,031.4,024.5,6.6,0000.0,0001.82,0003.98,0001.23
2023-11-12 13:30:00,SystemResetWarning,0834.5,5.00,000.00,023.1,022.1,000.0,031.4,024.5,6.8,0000.0,0001.82,0003.98,0001.23
2023-11-12 13:31:00,SystemResetWarning,0834.5,5.00,000.00,023.1,022.1,000.0,031.4,024.6,6.9,0000.0,0001.86,0004.11,0001.23
2023-11-12 13:32:00,SystemResetWarning,0834.5,5.01,000.00,023.1,022.2,000.0,031.4,024.6,7.0,0000.0,0001.83,0003.87,0001.23
2023-11-12 13:33:00,SystemResetWarning,0834.6,5.01,000.00,023.1,022.2,000.0,031.4,024.6,6.9,0000.0,0001.83,0003.88,0001.24
2023-11-12 13:34:00,SystemResetWarning,0834.6,5.00,000.00,023.1,022.2,000.0,031.4,024.6,6.9,0000.0,0001.79,0003.65,0001.25
2023-11-12 13:35:00,SystemResetWarning,0835.0,5.00,000.00,023.1,022.3,000.0,031.4,024.6,6.9,0000.0,0001.77,0003.54,0001.24
2023-11-12 13:36:00,SystemResetWarning,0834.9,4.99,000.00,023.1,022.3,000.0,031.4,024.6,7.6,0000.0,0001.76,0003.50,0001.23
2023-11-12 13:37:00,SystemResetWarning,0835.1,4.99,000.00,023.1,022.3,000.0,031.4,024.7,7.6,0000.0,0001.77,0003.56,0001.23
2023-11-12 13:38:00,SystemResetWarning,0835.0,5.00,000.00,023.1,022.3,000.0,031.4,024.6,7.4,0000.0,0001.79,0003.48,0001.23
2023-11-12 13:39:00,SystemResetWarning,0835.1,5.00,000.00,023.2,022.3,000.0,031.4,024.6,7.4,0000.0,0001.78,0003.11,0001.23
2023-11-12 13:40:00,SystemResetWarning,0835.0,5.00,000.00,023.2,022.3,000.0,031.4,024.6,7.4,0000.0,0001.82,0003.55,0001.23
2023-11-12 13:41:00,SystemResetWarning,0834.6,5.01,000.00,023.2,022.3,000.0,031.5,024.6,7.7,0000.0,0001.89,0004.15,0001.23
2023-11-12 13:42:00,SystemResetWarning,0834.9,5.01,000.00,023.2,022.3,000.0,031.5,024.6,8.6,0000.0,0001.89,0004.13,0001.24
2023-11-12 13:43:00,SystemResetWarning,0835.1,5.00,000.00,023.2,022.3,000.0,031.5,024.6,8.8,0000.0,0001.88,0005.46,0001.24
2023-11-12 13:44:00,SystemResetWarning,0835.2,4.98,000.00,023.2,022.3,000.0,031.5,024.7,8.6,0000.0,0001.87,0005.62,0001.24
2023-11-12 13:45:00,SystemResetWarning,0834.8,5.00,000.00,023.2,022.3,000.0,031.5,024.6,7.6,0000.0,0001.87,0005.60,0001.26
2023-11-12 13:46:00,SystemResetWarning,0834.7,5.00,000.00,023.2,022.3,000.0,031.5,024.7,7.4,0000.0,0001.96,0005.89,0001.29
2023-11-12 13:47:00,SystemResetWarning,0835.2,5.00,000.00,023.2,022.3,000.0,031.5,024.7,7.5,0000.0,0002.04,0007.01,0001.34
2023-11-12 13:48:00,SystemResetWarning,0835.1,5.01,000.00,023.2,022.3,000.0,031.5,024.7,7.5,0000.0,0002.09,0007.41,0001.37
2023-11-12 13:49:00,SystemResetWarning,0835.0,5.01,000.00,023.2,022.3,000.0,031.5,024.7,7.5,0000.0,0002.08,0007.41,0001.38
2023-11-12 13:50:00,SystemResetWarning,0835.0,5.00,000.00,023.2,022.3,000.0,031.5,024.7,7.9,0000.0,0002.13,0007.45,0001.39
2023-11-12 13:51:00,SystemResetWarning,0835.0,5.00,000.00,023.2,022.3,000.0,031.5,024.7,7.7,0000.0,0002.14,0007.14,0001.41
2023-11-12 13:52:00,SystemResetWarning,0835.0,5.00,000.00,023.2,022.3,000.0,031.5,024.6,7.4,0000.0,0002.10,0006.66,0001.41
2023-11-12 13:53:00,SystemResetWarning,0835.1,5.00,000.00,023.2,022.3,000.0,031.5,024.7,7.4,0000.0,0002.12,0006.72,0001.41
2023-11-12 13:54:00,SystemResetWarning,0835.1,5.00,000.00,023.2,022.3,000.0,031.5,024.7,7.5,0000.0,0002.13,0005.50,0001.42
2023-11-12 13:55:00,SystemResetWarning,0835.1,4.99,000.00,023.2,022.4,000.0,031.5,024.7,7.6,0000.0,0002.13,0005.30,0001.42
2023-11-12 13:56:00,SystemResetWarning,0835.2,5.00,000.00,023.2,022.4,000.0,031.5,024.7,7.4,0000.0,0002.15,0005.33,0001.42
2023-11-12 13:57:00,SystemResetWarning,0835.2,5.01,000.00,023.2,022.4,000.0,031.5,024.7,7.2,0000.0,0002.11,0005.10,0001.41
2023-11-12 13:58:00,SystemResetWarning,0835.2,5.01,000.00,023.2,022.4,000.0,031.5,024.7,7.1,0000.0,0002.07,0004.25,0001.40
2023-11-12 13:59:00,SystemResetWarning,0835.1,5.00,000.00,023.2,022.4,000.0,031.5,024.7,7.0,0000.0,0002.00,0003.58,0001.38
